Simultaneous Nadir Overpasses (SNOs) Predictions

Prediction of SNOs between NOAA-21 and METOP-C Satellite Orbit:

Table of predicted SNOs for the next 14.0 days since TLE Epoch: 12/21/2024
Index Date (NOAA-21) Time (NOAA-21) Lat,Lon (NOAA-21) SZA (NOAA-21 ) Date (METOP-C) Time (METOP-C) Lat,Lon (METOP-C) SZA (METOP-C ) Distance(km) Time Diff (sec)
1 12/25/2024 18:12:46 73.42,-102.56 96.90 12/25/2024 18:13:53 73.40, -99.96 96.78 82.61 67
2 12/25/2024 19:03:29 -73.35, 64.90 83.18 12/25/2024 19:04:37 -73.29, 67.11 83.34 70.74 68
3 12/25/2024 19:54:10 73.13,-127.29 96.58 12/25/2024 19:55:21 73.08,-126.01 96.47 41.59 71
4 12/25/2024 20:44:53 -73.06, 40.17 83.49 12/25/2024 20:46:04 -73.02, 41.17 83.59 33.05 71
5 12/25/2024 21:35:34 72.84,-152.04 96.27 12/25/2024 21:36:48 72.80,-151.94 96.22 5.04 74
6 12/25/2024 22:26:17 -72.77, 15.41 83.81 12/25/2024 22:27:30 -72.79, 15.36 83.80 2.59 73
7 12/25/2024 23:17:03 72.80,-177.33 96.22 12/25/2024 23:18:10 72.78,-177.33 96.19 1.96 67
8 12/26/2024 00:07:47 -72.78, -9.98 83.80 12/26/2024 00:08:52 -72.77, -10.03 83.83 2.35 65
9 12/26/2024 00:58:32 72.76, 157.38 96.18 12/26/2024 00:59:32 72.76, 157.28 96.17 3.11 60
10 12/26/2024 01:49:17 -72.79, -35.38 83.79 12/26/2024 01:50:13 -72.79, -35.31 83.80 2.29 56
11 12/26/2024 02:40:02 72.77, 131.98 96.19 12/26/2024 02:40:53 72.79, 132.00 96.19 1.93 51
12 12/26/2024 03:30:46 -72.75, -60.67 83.84 12/26/2024 03:31:35 -72.77, -60.70 83.83 2.11 49
13 12/26/2024 04:21:32 72.78, 106.59 96.19 12/26/2024 04:22:15 72.76, 106.62 96.17 2.16 43
14 12/26/2024 05:12:16 -72.77, -86.07 83.83 12/26/2024 05:12:57 -72.75, -86.09 83.85 1.91 41
15 12/26/2024 06:03:01 72.74, 81.30 96.15 12/26/2024 06:03:37 72.74, 81.23 96.15 2.23 36
16 12/26/2024 06:53:46 -72.78,-111.46 83.82 12/26/2024 06:54:18 -72.78,-111.37 83.83 3.17 32
17 12/26/2024 07:44:31 72.75, 55.90 96.16 12/26/2024 07:44:58 72.77, 55.95 96.17 2.38 27
18 12/26/2024 08:35:15 -72.74,-136.76 83.86 12/26/2024 08:35:40 -72.75,-136.76 83.85 1.93 25
19 12/26/2024 09:26:01 72.76, 30.50 96.17 12/26/2024 09:26:20 72.74, 30.56 96.15 2.67 19
20 12/26/2024 10:16:45 -72.75,-162.15 83.85 12/26/2024 10:17:02 -72.73,-162.14 83.87 1.85 17
21 12/26/2024 11:07:30 72.72, 5.21 96.12 12/26/2024 11:07:42 72.72, 5.17 96.12 1.34 12
22 12/26/2024 11:58:14 -72.71, 172.56 83.90 12/26/2024 11:58:24 -72.71, 172.47 83.90 2.85 10
23 12/26/2024 12:49:00 72.73, -20.19 96.13 12/26/2024 12:49:03 72.75, -20.11 96.14 3.02 3
24 12/26/2024 13:39:44 -72.72, 147.16 83.89 12/26/2024 13:39:45 -72.73, 147.19 83.87 2.12 1
25 12/26/2024 14:30:30 72.74, -45.58 96.14 12/26/2024 14:30:25 72.73, -45.50 96.12 3.36 5
26 12/26/2024 15:21:14 -72.73, 121.76 83.88 12/26/2024 15:21:07 -72.71, 121.80 83.90 2.21 7
27 12/26/2024 16:11:59 72.70, -70.87 96.10 12/26/2024 16:11:47 72.70, -70.89 96.10 0.46 12
28 12/26/2024 17:02:43 -72.69, 96.47 83.93 12/26/2024 17:02:29 -72.69, 96.41 83.92 1.94 14
29 12/26/2024 17:53:29 72.71, -96.27 96.10 12/26/2024 17:53:08 72.73, -96.17 96.12 3.76 21
30 12/26/2024 18:44:13 -72.70, 71.07 83.92 12/26/2024 18:43:50 -72.72, 71.13 83.90 2.60 23
31 12/26/2024 19:34:58 72.67,-121.56 96.06 12/26/2024 19:34:30 72.71,-121.56 96.10 3.65 28
32 12/26/2024 20:25:43 -72.71, 45.68 83.91 12/26/2024 20:25:12 -72.69, 45.74 83.92 2.83 31
33 12/26/2024 21:16:28 72.68,-146.96 96.07 12/26/2024 21:15:52 72.68,-146.94 96.07 0.48 36
34 12/26/2024 22:07:12 -72.67, 20.39 83.95 12/26/2024 22:06:34 -72.67, 20.36 83.95 1.04 38
35 12/26/2024 22:57:57 72.64,-172.25 96.02 12/26/2024 22:57:14 72.66,-172.33 96.05 3.20 43
36 12/26/2024 23:48:42 -72.68, -5.01 83.95 12/26/2024 23:47:55 -72.70, -4.93 83.92 3.26 47
37 12/27/2024 00:39:27 72.66, 162.35 96.03 12/27/2024 00:38:36 72.64, 162.28 96.02 3.17 51
38 12/27/2024 01:30:12 -72.69, -30.41 83.94 12/27/2024 01:29:17 -72.67, -30.32 83.95 3.59 55
39 12/27/2024 02:20:57 72.67, 136.96 96.04 12/27/2024 02:19:57 72.66, 137.00 96.05 1.38 60
40 12/27/2024 03:11:40 -72.65, -55.70 83.98 12/27/2024 03:10:38 -72.65, -55.70 83.97 0.16 62
41 12/27/2024 04:02:25 72.63, 111.66 95.99 12/27/2024 04:01:18 72.64, 111.61 96.02 2.43 67
42 12/27/2024 04:53:09 -72.61, -80.99 84.03 12/27/2024 04:52:00 -72.63, -81.09 84.00 3.69 69
43 12/27/2024 05:43:54 72.59, 86.37 95.95 12/27/2024 05:42:40 72.62, 86.22 96.00 6.04 74
44 12/27/2024 06:34:37 -72.52,-106.18 84.13 12/27/2024 06:33:23 -72.55,-106.58 84.07 13.73 74
45 12/27/2024 07:25:19 72.34, 61.49 95.68 12/27/2024 07:24:07 72.34, 60.33 95.74 39.11 72
46 12/27/2024 08:16:01 -72.23,-130.97 84.45 12/27/2024 08:14:51 -72.22,-132.57 84.37 54.18 70
47 12/27/2024 09:06:42 71.99, 36.78 95.31 12/27/2024 09:05:35 72.01, 34.35 95.44 83.67 67
48 12/27/2024 09:57:25 -71.93,-155.78 84.76 12/27/2024 09:56:18 -71.94,-158.44 84.63 91.70 67



Historial Predications of SNOs between NOAA-21 and METOP-C
